TimeEDT,TemperatureF,Dew PointF,Humidity,Sea Level PressureIn,VisibilityMPH,Wind Direction,Wind SpeedMPH,Gust SpeedMPH,PrecipitationIn,Events,Conditions,WindDirDegrees,DateUTC
12:54 AM,37.9,23.0,55,30.30,10.0,Calm,Calm,-,N/A,,Clear,0,2013-03-29 04:54:00
1:54 AM,35.1,24.1,64,30.31,10.0,Calm,Calm,-,N/A,,Clear,0,2013-03-29 05:54:00
2:54 AM,30.0,24.1,79,30.32,10.0,Calm,Calm,-,N/A,,Clear,0,2013-03-29 06:54:00
3:54 AM,33.1,24.1,70,30.31,10.0,Calm,Calm,-,N/A,,Clear,0,2013-03-29 07:54:00
4:54 AM,28.9,24.1,82,30.31,10.0,Calm,Calm,-,N/A,,Clear,0,2013-03-29 08:54:00
5:54 AM,28.9,24.1,82,30.32,10.0,Variable,3.5,-,N/A,,Clear,0,2013-03-29 09:54:00
6:54 AM,30.0,24.1,79,30.34,10.0,Calm,Calm,-,N/A,,Clear,0,2013-03-29 10:54:00
7:54 AM,30.9,26.1,82,30.35,10.0,Calm,Calm,-,N/A,,Clear,0,2013-03-29 11:54:00
8:54 AM,39.9,27.0,60,30.36,10.0,Calm,Calm,-,N/A,,Clear,0,2013-03-29 12:54:00
9:54 AM,48.0,24.1,39,30.35,10.0,WSW,3.5,-,N/A,,Clear,240,2013-03-29 13:54:00
10:54 AM,51.1,23.0,33,30.35,10.0,Variable,4.6,-,N/A,,Clear,0,2013-03-29 14:54:00
11:54 AM,54.0,23.0,30,30.34,-9999.0,North,-9999.0,-,N/A,,Unknown,0,2013-03-29 15:54:00
12:54 PM,55.9,23.0,28,30.31,10.0,WSW,6.9,-,N/A,,Clear,240,2013-03-29 16:54:00
1:54 PM,57.9,23.0,26,30.27,10.0,Variable,5.8,-,N/A,,Clear,0,2013-03-29 17:54:00
2:54 PM,60.1,21.0,22,30.24,10.0,Variable,3.5,-,N/A,,Clear,0,2013-03-29 18:54:00
3:54 PM,62.1,21.0,21,30.21,10.0,Variable,5.8,-,N/A,,Clear,0,2013-03-29 19:54:00
4:54 PM,61.0,23.0,23,30.20,10.0,Variable,3.5,-,N/A,,Mostly Cloudy,0,2013-03-29 20:54:00
5:54 PM,61.0,23.0,23,30.19,10.0,WSW,6.9,-,N/A,,Clear,240,2013-03-29 21:54:00
6:54 PM,59.0,24.1,26,30.20,10.0,Variable,5.8,-,N/A,,Scattered Clouds,0,2013-03-29 22:54:00
7:54 PM,57.0,26.1,30,30.21,10.0,West,3.5,-,N/A,,Overcast,260,2013-03-29 23:54:00
8:54 PM,55.9,28.9,36,30.23,10.0,Calm,Calm,-,N/A,,Overcast,0,2013-03-30 00:54:00
9:54 PM,55.0,33.1,43,30.23,10.0,Calm,Calm,-,0.00,Rain,Light Rain,0,2013-03-30 01:54:00
10:54 PM,52.0,37.9,59,30.24,10.0,Calm,Calm,-,0.00,Rain,Light Rain,0,2013-03-30 02:54:00
11:54 PM,50.0,41.0,71,30.23,10.0,Calm,Calm,-,0.00,Rain,Light Rain,0,2013-03-30 03:54:00